GW6813 Weather Reports


time (UTC)temp
F
wind
direction
speed
knots
gust
knots
rain 1hr
in
rain 24hr
in
rain mn
in
humidity
%
barometer
mb
20260906173813 78 90 1.7 6.1 0.00 0.00 0.00 75 1017.3
20260906173313 77 158 0.9 6.1 0.00 0.00 0.00 79 1017.3
20260906172813 76 338 0.9 6.1 0.00 0.00 0.00 80 1017.3
20260906172313 75 90 1.7 6.1 0.00 0.00 0.00 80 1017.3
20260906171813 75 113 4.3 6.1 0.00 0.00 0.00 80 1017.3
20260906171313 76 68 1.7 6.1 0.00 0.00 0.00 81 1017.6
20260906170813 75 135 1.7 6.1 0.00 0.00 0.00 81 1017.6
20260906170313 75 225 2.6 6.1 0.00 0.00 0.00 81 1017.6
20260906165814 75 248 1.7 6.1 0.00 0.00 0.00 81 1017.6
20260906165313 75 180 1.7 6.1 0.00 0.00 0.00 81 1017.6
20260906164813 75 203 1.7 6.1 0.00 0.00 0.00 81 1017.6
20260906164313 75 293 1.7 6.1 0.00 0.00 0.00 81 1017.6
20260906163813 75 45 1.7 5.2 0.00 0.00 0.00 83 1017.6
20260906163314 74 270 0.9 5.2 0.00 0.00 0.00 84 1017.6
20260906162813 75 270 1.7 5.2 0.00 0.00 0.00 83 1017.6
20260906162313 74 315 0.9 5.2 0.00 0.00 0.00 83 1017.9
20260906161813 74 68 1.7 5.2 0.00 0.00 0.00 83 1017.9
20260906161313 73 270 2.6 5.2 0.00 0.00 0.00 85 1017.9
20260906160813 73 158 2.6 5.2 0.00 0.00 0.00 85 1017.9
20260906160313 74 158 0.9 5.2 0.00 0.00 0.00 84 1017.9
20260906155813 74 270 0.9 6.1 0.00 0.00 0.00 84 1017.9
20260906155313 74 248 0.9 6.1 0.00 0.00 0.00 85 1017.9
20260906154813 73 113 3.5 6.1 0.00 0.00 0.00 84 1017.9
20260906154313 74 315 1.7 6.1 0.00 0.00 0.00 84 1017.9
20260906153813 74 113 1.7 6.1 0.00 0.00 0.00 84 1017.9
20260906153313 73 113 0.9 6.1 0.00 0.00 0.00 85 1017.9
20260906152813 73 180 1.7 6.1 0.00 0.00 0.00 85 1017.9
20260906152313 73 113 4.3 6.1 0.00 0.00 0.00 85 1017.9
20260906151813 74 113 1.7 6.1 0.00 0.00 0.00 84 1017.9
20260906151313 74 45 3.5 6.1 0.00 0.00 0.00 83 1017.9
20260906150814 75 225 3.5 6.1 0.00 0.00 0.00 82 1017.9
20260906150313 75 113 1.7 6.1 0.00 0.00 0.00 82 1017.9
20260906145813 75 270 6.1 6.1 0.00 0.00 0.00 82 1017.6
20260906145313 74 180 1.7 6.1 0.00 0.00 0.00 84 1017.6
20260906144814 75 45 1.7 6.1 0.00 0.00 0.00 82 1017.9
20260906144313 75 135 1.7 6.1 0.00 0.00 0.00 82 1017.9
20260906143814 75 270 0.9 6.1 0.00 0.00 0.00 81 1017.6
20260906143313 75 225 6.1 6.1 0.00 0.00 0.00 81 1017.6
20260906142813 75 225 1.7 5.2 0.00 0.00 0.00 80 1017.6
20260906142313 76 203 1.7 5.2 0.00 0.00 0.00 80 1017.6
20260906141814 75 180 1.7 5.2 0.00 0.00 0.00 82 1017.6
20260906141314 76 113 1.7 5.2 0.00 0.00 0.00 82 1017.6
20260906140813 75 158 1.7 5.2 0.00 0.00 0.00 82 1017.6
20260906140313 75 270 0.0 5.2 0.00 0.00 0.00 84 1017.6
20260906135813 74 158 1.7 5.2 0.00 0.00 0.00 85 1017.6
20260906135316 75 225 1.7 5.2 0.00 0.00 0.00 84 1017.6
20260906134813 75 293 1.7 5.2 0.00 0.00 0.00 85 1017.6
20260906134313 73 135 1.7 5.2 0.00 0.00 0.00 87 1017.6
20260906133818 73 225 1.7 5.2 0.00 0.00 0.00 87 1017.3
20260906133313 73 45 1.7 4.3 0.00 0.00 0.00 88 1017.3
20260906132813 73 225 1.7 4.3 0.00 0.00 0.00 88 1017.3
20260906132313 72 225 0.0 4.3 0.00 0.00 0.00 89 1017.3
20260906131814 71 248 0.0 4.3 0.00 0.00 0.00 90 1017.3
20260906131313 71 203 1.7 4.3 0.00 0.00 0.00 90 1017.3
20260906130813 71 158 3.5 4.3 0.00 0.00 0.00 90 1017.3
20260906130313 71 180 0.0 4.3 0.00 0.00 0.00 90 1017.3
20260906125813 70 113 3.5 4.3 0.00 0.00 0.00 90 1017.3
20260906125313 70 90 2.6 4.3 0.00 0.00 0.00 90 1017.3
20260906124813 70 113 1.7 3.5 0.00 0.00 0.00 91 1017.3
20260906124313 70 203 0.9 2.6 0.00 0.00 0.00 91 1017.3
20260906123813 70 225 0.0 2.6 0.00 0.00 0.00 91 1017.3
20260906123313 69 90 0.9 2.6 0.00 0.00 0.00 91 1017.3
20260906122813 69 68 0.0 2.6 0.00 0.00 0.00 91 1017.3
20260906122313 69 270 1.7 1.7 0.00 0.00 0.00 91 1017.3
20260906121813 69 90 0.0 1.7 0.00 0.00 0.00 91 1017.3
20260906121313 69 113 0.0 1.7 0.00 0.00 0.00 91 1017.3
20260906120813 69 270 0.0 1.7 0.00 0.00 0.00 91 1017.3
20260906120313 69 225 0.0 1.7 0.00 0.00 0.00 91 1017.3
20260906115813 69 293 0.0 1.7 0.00 0.00 0.00 90 1016.9
20260906115313 69 225 0.0 1.7 0.00 0.00 0.00 90 1016.9
20260906114813 69 90 0.0 1.7 0.00 0.00 0.00 90 1016.9
20260906114313 69 68 0.0 1.7 0.00 0.00 0.00 90 1016.9
20260906113813 69 203 0.0 1.7 0.00 0.00 0.00 90 1016.9
20260906113313 69 23 0.0 1.7 0.00 0.00 0.00 90 1016.9
20260906112813 70 360 0.0 1.7 0.00 0.00 0.00 90 1016.9
20260906112314 70 248 0.0 1.7 0.00 0.00 0.00 90 1016.6
20260906111814 70 270 0.0 1.7 0.00 0.00 0.00 90 1016.6
20260906111325 70 135 0.9 1.7 0.00 0.00 0.00 90 1016.6
20260906110813 70 90 1.7 1.7 0.00 0.00 0.00 90 1016.6
20260906110314 70 338 0.0 1.7 0.00 0.00 0.00 90 1016.6
20260906105813 70 68 0.0 1.7 0.00 0.00 0.00 90 1016.3
20260906105313 70 270 0.0 1.7 0.00 0.00 0.00 90 1016.3
20260906104813 71 68 0.0 1.7 0.00 0.00 0.00 90 1016.6
20260906104313 71 90 0.0 1.7 0.00 0.00 0.00 90 1016.6
20260906103813 71 203 0.0 1.7 0.00 0.00 0.00 90 1016.6
20260906103313 71 23 1.7 1.7 0.00 0.00 0.00 90 1016.6
20260906102814 71 45 0.0 1.7 0.00 0.00 0.00 90 1016.6
20260906102313 71 135 1.7 1.7 0.00 0.00 0.00 90 1016.3
20260906101813 70 90 0.9 1.7 0.00 0.00 0.00 90 1016.3
20260906101314 70 90 0.0 1.7 0.00 0.00 0.00 90 1016.3
20260906100813 70 23 0.0 1.7 0.00 0.00 0.00 90 1016.3
20260906100313 71 113 0.0 1.7 0.00 0.00 0.00 90 1016.3
20260906095813 71 248 1.7 1.7 0.00 0.00 0.00 90 1016.3
20260906095314 71 270 0.0 1.7 0.00 0.00 0.00 90 1016.3
20260906094813 71 270 0.0 1.7 0.00 0.00 0.00 89 1015.9
20260906094313 71 248 0.0 1.7 0.00 0.00 0.00 89 1015.9
20260906093813 71 90 0.0 1.7 0.00 0.00 0.00 89 1015.6
20260906093313 71 203 0.0 1.7 0.00 0.00 0.00 89 1015.6
20260906092814 71 23 0.0 1.7 0.00 0.00 0.00 89 1015.6
20260906092314 71 113 0.0 1.7 0.00 0.00 0.00 89 1015.6
20260906091813 71 90 1.7 1.7 0.00 0.00 0.00 89 1015.6
20260906091313 71 113 0.9 1.7 0.00 0.00 0.00 89 1015.9
20260906090813 71 270 0.0 1.7 0.00 0.00 0.00 89 1015.9
20260906090313 71 270 0.0 1.7 0.00 0.00 0.00 89 1015.9
20260906085813 71 270 0.0 1.7 0.00 0.00 0.00 89 1015.9
20260906085313 71 113 0.0 1.7 0.00 0.00 0.00 89 1015.9
20260906084813 71 248 0.0 1.7 0.00 0.00 0.00 89 1015.6
20260906084313 71 248 0.0 1.7 0.00 0.00 0.00 89 1015.6
20260906083813 72 180 0.0 2.6 0.00 0.00 0.00 89 1015.6
20260906083313 72 248 0.0 2.6 0.00 0.00 0.00 88 1015.6
20260906082815 72 113 0.9 2.6 0.00 0.00 0.00 88 1015.6
20260906082313 72 68 1.7 2.6 0.00 0.00 0.00 88 1015.6
20260906081815 72 248 0.0 2.6 0.00 0.00 0.00 88 1015.6
20260906081313 72 203 1.7 2.6 0.00 0.00 0.00 88 1015.2
20260906080813 73 135 0.0 2.6 0.00 0.00 0.00 88 1015.2
20260906080313 73 158 0.9 2.6 0.00 0.00 0.00 87 1015.2
20260906075814 73 225 0.0 2.6 0.00 0.00 0.00 87 1015.6
20260906075314 73 90 0.0 2.6 0.00 0.00 0.00 87 1015.6
20260906074813 73 180 1.7 2.6 0.00 0.00 0.00 87 1015.6
20260906074313 73 113 0.0 2.6 0.00 0.00 0.00 87 1015.6
20260906073814 73 338 0.0 1.7 0.00 0.00 0.00 86 1015.6
20260906073314 73 158 0.0 1.7 0.00 0.00 0.00 86 1015.6
20260906072813 73 360 0.0 1.7 0.00 0.00 0.00 86 1015.6
20260906072313 73 248 1.7 1.7 0.00 0.00 0.00 86 1015.9
20260906071813 74 68 0.0 1.7 0.00 0.00 0.00 86 1015.9
20260906071314 74 225 0.9 1.7 0.00 0.00 0.00 86 1015.9
20260906070813 74 180 0.0 1.7 0.00 0.00 0.00 86 1015.9
20260906070313 74 180 1.7 1.7 0.00 0.00 0.00 86 1015.9
20260906065813 74 225 1.7 1.7 0.00 0.00 0.00 86 1016.3
20260906065313 74 90 0.9 1.7 0.00 0.00 0.00 86 1016.3
20260906064813 74 68 0.0 1.7 0.00 0.00 0.00 86 1015.9
20260906064313 74 248 0.9 1.7 0.00 0.00 0.00 85 1015.9
20260906063813 74 135 0.0 1.7 0.00 0.00 0.00 85 1015.9
20260906063313 74 203 0.0 1.7 0.00 0.00 0.00 85 1015.9
20260906062814 75 248 0.0 1.7 0.00 0.00 0.00 85 1015.9
20260906062314 75 113 0.0 1.7 0.00 0.00 0.00 85 1015.9
20260906061813 75 158 0.9 1.7 0.00 0.00 0.00 85 1015.9
20260906061313 75 248 0.0 1.7 0.00 0.00 0.00 85 1015.9
20260906060813 74 113 0.0 1.7 0.00 0.00 0.00 85 1015.9
20260906060314 74 113 0.9 1.7 0.00 0.00 0.00 85 1015.9
20260906055813 74 113 0.0 1.7 0.00 0.00 0.00 85 1015.9
20260906055314 75 270 0.0 1.7 0.00 0.00 0.00 85 1015.9
20260906054813 75 248 0.0 1.7 0.00 0.00 0.00 85 1015.9
20260906054314 75 180 0.0 1.7 0.00 0.00 0.00 85 1015.9
20260906053813 75 90 0.0 1.7 0.00 0.00 0.00 84 1015.9
20260906053314 75 270 0.0 1.7 0.00 0.00 0.00 84 1015.9
20260906052813 75 90 0.0 1.7 0.00 0.00 0.00 84 1015.9
20260906052313 75 135 0.9 1.7 0.00 0.00 0.00 84 1015.9
20260906051813 75 248 0.0 1.7 0.00 0.00 0.00 84 1015.9
20260906051314 75 113 1.7 1.7 0.00 0.00 0.00 84 1016.3
20260906050813 75 113 1.7 1.7 0.00 0.00 0.00 84 1016.3
20260906050313 75 158 1.7 1.7 0.00 0.00 0.00 84 1016.3
20260906045813 75 68 1.7 1.7 0.00 0.00 0.00 84 1016.6
20260906045313 75 113 0.0 1.7 0.00 0.00 0.00 84 1016.6
20260906044816 75 248 0.0 1.7 0.00 0.00 0.00 84 1016.6
20260906044314 75 158 0.0 1.7 0.00 0.00 0.00 84 1016.6
20260906043813 75 180 1.7 1.7 0.00 0.00 0.00 84 1016.6
20260906043313 75 90 0.0 1.7 0.00 0.00 0.00 84 1016.6
20260906042813 75 180 0.0 1.7 0.00 0.00 0.00 84 1016.6
20260906042313 75 158 0.0 1.7 0.00 0.00 0.00 84 1016.6
20260906041813 75 135 0.0 1.7 0.00 0.00 0.00 84 1016.6
20260906041313 75 225 0.0 1.7 0.00 0.00 0.00 84 1016.6
20260906040813 75 180 0.0 1.7 0.00 0.00 0.00 84 1016.6
20260906040313 75 158 0.0 0.0 0.00 0.00 0.00 84 1016.6
20260906035813 75 135 0.0 0.0 0.00 0.00 0.00 84 1016.9
20260906035313 75 135 0.0 0.0 0.00 0.00 0.00 84 1016.9
20260906034813 75 135 0.0 0.0 0.00 0.00 0.00 84 1016.6
20260906034313 75 113 0.0 1.7 0.00 0.00 0.00 83 1016.6
20260906033813 75 135 0.0 1.7 0.00 0.00 0.00 83 1016.6
20260906033313 76 180 0.0 1.7 0.00 0.00 0.00 83 1016.6
20260906032813 76 270 0.0 1.7 0.00 0.00 0.00 83 1016.6
20260906032313 76 113 0.0 1.7 0.00 0.00 0.00 82 1016.6
20260906031814 76 135 0.0 1.7 0.00 0.00 0.00 82 1016.6
20260906031313 77 203 0.0 1.7 0.00 0.00 0.00 81 1016.6
20260906030814 77 158 0.0 2.6 0.00 0.00 0.00 80 1016.6
20260906030313 77 180 0.0 2.6 0.00 0.00 0.00 80 1016.6
20260906025813 77 225 0.0 2.6 0.00 0.00 0.00 79 1016.6
20260906025314 78 158 0.0 2.6 0.00 0.00 0.00 78 1016.6
20260906024813 78 113 0.0 2.6 0.00 0.00 0.00 78 1016.9
20260906024313 78 225 0.0 4.3 0.00 0.00 0.00 78 1016.9
20260906023813 78 270 0.0 6.1 0.00 0.00 0.00 78 1016.6
20260906023314 78 113 0.0 6.1 0.00 0.00 0.00 78 1016.6
20260906022813 78 90 0.0 6.1 0.00 0.00 0.00 78 1016.6
20260906022314 78 23 0.0 6.1 0.00 0.00 0.00 78 1016.3
20260906021813 78 180 0.0 6.1 0.00 0.00 0.00 78 1016.3
20260906021313 78 113 0.0 6.1 0.00 0.00 0.00 78 1015.9
20260906020813 78 90 1.7 6.1 0.00 0.00 0.00 78 1015.9
20260906020313 78 113 1.7 6.1 0.00 0.00 0.00 77 1015.9
20260906015814 78 135 0.0 6.1 0.00 0.00 0.00 77 1015.6
20260906015313 78 225 0.0 6.1 0.00 0.00 0.00 76 1015.6
20260906014813 79 293 0.9 6.1 0.00 0.00 0.00 76 1015.2
20260906014313 79 45 1.7 6.1 0.00 0.00 0.00 75 1015.2
20260906013813 79 158 6.1 6.1 0.00 0.00 0.00 75 1014.6
20260906013314 79 270 0.0 4.3 0.00 0.00 0.00 74 1014.6
20260906012813 79 203 1.7 4.3 0.00 0.00 0.00 73 1014.6
20260906012314 79 158 3.5 4.3 0.00 0.00 0.00 73 1014.6
20260906011813 80 225 0.9 4.3 0.00 0.00 0.00 73 1014.6
20260906011314 80 68 3.5 4.3 0.00 0.00 0.00 72 1014.2
20260906010813 81 203 0.9 4.3 0.00 0.00 0.00 72 1014.2
20260906010314 81 68 1.7 4.3 0.00 0.00 0.00 71 1014.2
20260906005813 82 270 0.0 4.3 0.00 0.00 0.00 70 1014.2
20260906005313 82 45 2.6 4.3 0.00 0.00 0.00 67 1014.2
20260906004814 83 293 1.7 4.3 0.00 0.00 0.00 66 1014.2
20260906004313 83 203 0.0 4.3 0.00 0.00 0.00 63 1014.2
20260906003814 84 135 0.9 4.3 0.00 0.00 0.00 62 1013.9
20260906003313 84 248 1.7 4.3 0.00 0.00 0.00 60 1013.9
20260906002813 84 23 1.7 4.3 0.00 0.00 0.00 60 1013.9
20260906002313 84 135 1.7 4.3 0.00 0.00 0.00 60 1013.5
20260906001814 85 203 0.9 4.3 0.00 0.00 0.00 59 1013.5
20260906001313 85 270 4.3 4.3 0.00 0.00 0.00 59 1013.9
20260906000813 86 23 1.7 4.3 0.00 0.00 0.00 59 1013.9
20260906000314 86 203 0.0 4.3 0.00 0.00 0.00 58 1013.9
20260905235814 87 248 1.7 4.3 0.00 0.00 0.00 57 1013.9
20260905235314 87 135 1.7 4.3 0.00 0.00 0.00 56 1013.9
20260905234813 88 113 1.7 4.3 0.00 0.00 0.00 55 1013.9
20260905234314 88 270 1.7 3.5 0.00 0.00 0.00 55 1013.9
20260905233813 89 203 0.9 3.5 0.00 0.00 0.00 54 1013.5
20260905233313 88 180 1.7 3.5 0.00 0.00 0.00 56 1013.5
20260905232813 87 270 0.0 3.5 0.00 0.00 0.00 56 1013.5
20260905232313 87 113 0.0 3.5 0.00 0.00 0.00 56 1013.5
20260905231815 87 270 1.7 3.5 0.00 0.00 0.00 55 1013.5
20260905231313 87 248 0.9 3.5 0.00 0.00 0.00 56 1013.2
20260905230813 87 135 1.7 3.5 0.00 0.00 0.00 58 1013.2
20260905230313 88 225 2.6 3.5 0.00 0.00 0.00 56 1013.2
20260905225814 89 270 1.7 3.5 0.00 0.00 0.00 56 1013.2
20260905225314 89 135 1.7 3.5 0.00 0.00 0.00 55 1013.2
20260905224813 90 158 0.0 3.5 0.00 0.00 0.00 54 1013.2
20260905224314 89 135 0.0 3.5 0.00 0.00 0.00 55 1013.2
20260905223813 89 135 1.7 3.5 0.00 0.00 0.00 52 1013.2
20260905223315 89 180 0.0 3.5 0.00 0.00 0.00 51 1013.2
20260905222813 89 225 1.7 3.5 0.00 0.00 0.00 52 1013.2
20260905222314 89 158 1.7 3.5 0.00 0.00 0.00 52 1013.5
20260905221813 89 135 1.7 3.5 0.00 0.00 0.00 52 1013.5
20260905221314 89 158 1.7 3.5 0.00 0.00 0.00 53 1013.5
20260905220813 89 248 0.9 3.5 0.00 0.00 0.00 52 1013.5
20260905220313 90 113 1.7 3.5 0.00 0.00 0.00 52 1013.5
20260905215813 90 203 1.7 3.5 0.00 0.00 0.00 55 1013.5
20260905215314 89 270 0.0 3.5 0.00 0.00 0.00 56 1013.5
20260905214813 89 135 0.0 3.5 0.00 0.00 0.00 55 1013.5
20260905214313 88 225 1.7 3.5 0.00 0.00 0.00 56 1013.5
20260905213813 88 113 1.7 3.5 0.00 0.00 0.00 58 1013.5
20260905213313 88 113 1.7 3.5 0.00 0.00 0.00 58 1013.5
20260905212813 88 135 1.7 3.5 0.00 0.00 0.00 56 1013.5
20260905212313 88 113 1.7 3.5 0.00 0.00 0.00 58 1013.5
20260905211813 88 203 1.7 3.5 0.00 0.00 0.00 57 1013.5
20260905211313 88 315 1.7 3.5 0.00 0.00 0.00 58 1013.5
20260905210813 88 270 1.7 3.5 0.00 0.00 0.00 58 1013.5
20260905210313 88 225 1.7 3.5 0.00 0.00 0.00 59 1013.5
20260905205814 87 180 1.7 3.5 0.00 0.00 0.00 59 1013.9
20260905205313 87 180 1.7 3.5 0.00 0.00 0.00 60 1013.9
20260905204813 87 270 1.7 3.5 0.00 0.00 0.00 61 1014.6
20260905204316 88 270 1.7 3.5 0.00 0.00 0.00 61 1014.6
20260905203815 88 135 1.7 3.5 0.00 0.00 0.00 60 1014.6
20260905203313 87 113 1.7 3.5 0.00 0.00 0.00 62 1014.6
20260905202813 86 135 1.7 3.5 0.00 0.00 0.00 63 1014.6
20260905202313 86 135 1.7 3.5 0.00 0.00 0.00 64 1014.9
20260905201814 85 113 1.7 3.5 0.00 0.00 0.00 66 1014.9
20260905201313 85 248 0.0 3.5 0.00 0.00 0.00 65 1015.2
20260905200813 84 90 0.0 3.5 0.00 0.00 0.00 66 1015.2
20260905200313 84 270 0.9 3.5 0.00 0.00 0.00 67 1015.2
20260905195813 84 113 1.7 3.5 0.00 0.00 0.00 67 1015.2
20260905195313 84 270 1.7 2.6 0.00 0.00 0.00 65 1015.2
20260905194813 85 270 0.9 2.6 0.00 0.00 0.00 64 1015.6
20260905194313 83 135 0.0 2.6 0.00 0.00 0.00 69 1015.6
20260905193813 84 158 1.7 2.6 0.00 0.00 0.00 65 1015.6
20260905193314 85 180 1.7 2.6 0.00 0.00 0.00 64 1015.6
20260905192815 86 360 0.9 2.6 0.00 0.00 0.00 62 1015.6
20260905192313 86 113 1.7 2.6 0.00 0.00 0.00 62 1015.9
20260905191814 87 135 1.7 2.6 0.00 0.00 0.00 62 1015.9
20260905191313 85 225 0.0 2.6 0.00 0.00 0.00 65 1015.9
20260905190813 85 45 1.7 2.6 0.00 0.00 0.00 64 1015.9
20260905190316 83 113 0.9 2.6 0.00 0.00 0.00 70 1015.9
20260905185813 84 315 0.0 2.6 0.00 0.00 0.00 70 1015.6
20260905185315 83 113 1.7 3.5 0.00 0.00 0.00 69 1015.6
20260905184814 84 203 0.0 3.5 0.00 0.00 0.00 70 1015.6
20260905184313 82 180 1.7 3.5 0.00 0.00 0.00 71 1015.6
20260905183813 81 135 1.7 3.5 0.00 0.00 0.00 73 1015.6
20260905183313 80 158 0.0 3.5 0.00 0.00 0.00 73 1015.9
20260905182813 81 158 0.0 3.5 0.00 0.00 0.00 72 1015.9
20260905182313 82 158 0.0 3.5 0.00 0.00 0.00 70 1015.9
20260905181813 83 248 0.9 3.5 0.00 0.00 0.00 70 1015.9
20260905181313 84 113 1.7 3.5 0.00 0.00 0.00 68 1016.3
20260905180813 83 113 1.7 3.5 0.00 0.00 0.00 68 1016.3
20260905180313 82 180 1.7 3.5 0.00 0.00 0.00 72 1016.3
20260905175813 81 248 0.0 3.5 0.00 0.00 0.00 72 1016.3
20260905175315 82 360 3.5 3.5 0.00 0.00 0.00 72 1016.3
20260905174813 80 270 0.0 3.5 0.00 0.00 0.00 76 1016.6
20260905174313 79 270 0.9 3.5 0.00 0.00 0.00 77 1016.6